Terminal Aerodrome Forecast
Issued by NWS

Current Version | Previous Version | Text Only | Print | Product List | Glossary Off
Versions: 1 2 3 4 5 6 7 8 9 10 11 12 13 14 15 16 17 18 19

000
FTUS41 KILN 052300
TAFLCK
TAF
KLCK 052336Z 0600/0624 VRB03KT P6SM SCT035 BKN150
     FM061100 VRB03KT P6SM BKN035
     FM061700 24007KT P6SM SCT040=

USA.gov is the U.S. government's official web portal to all federal, state and local government web resources and services.